Location: Dalton
(42.4737°N, 73.1662°W)
Time: 18:58:27
(UTC+00:00)

Envisat - Pass Details

Date: 29 September 2024
Orbit: 762 x 764 km, 98.3° (Epoch: 09 October)

Event Time Altitude Azimuth Distance (km) Brightness Sun altitude
Rises 08:38:08 0° 6° (N) 3,235 6.6 -24.4°
Reaches altitude 10° 08:40:31 10° 1° (N) 2,305 5.7 -24.0°
Enters shadow 08:44:49 43° 307° (NW) 1,060 3.4 -23.2°
